Regional Weather Roundup
Issued by NWS Northern Indiana

Home | Current Version | Previous Version | Text Only | Print | Product List | Glossary Off
Versions: 1 2 3 4 5 6 7 8 9 10 11 12 13 14 15 16 17 18 19 20 21 22 23 24 25 26 27 28 29 30 31 32 33 34 35 36 37 38 39 40 41 42 43 44 45 46 47 48 49 50

000
ASUS43 KIWX 050810
RWRIWX

KIWX WEATHER ROUNDUP
NATIONAL WEATHER SERVICE NORTHERN INDIANA
400 AM EDT TUE MAY 05 2015

NOTE: "FAIR" INDICATES FEW OR NO CLOUDS BELOW 12,000 FEET WITH NO
SIGNIFICANT WEATHER AND/OR OBSTRUCTIONS TO VISIBILITY.

* THESE STATIONS ARE NOT UNDER NWS QUALITY CONTROL. THEY ALSO MAY NOT
  REPORT WEATHER SUCH AS PRECIPITATION OR FOG.

INZ001>027-050900-
NORTHERN INDIANA

CITY           SKY/WX    TMP DP  RH WIND       PRES   REMARKS
GARY*          RAIN      55  50  84 NE6       30.18F
VALPARAISO     RAIN      61  58  90 SW7       30.19R FOG
MICHIGAN CITY* CLOUDY    57  55  94 W7        30.19R
LAPORTE*       CLOUDY    61  58  90 SW8       30.18R
KNOX*          CLOUDY    61  55  82 CALM      30.16R
SOUTH BEND     MOCLDY    60  54  80 NE3       30.18S
GOSHEN         CLOUDY    59  57  93 SE5       30.18S FOG
MONTICELLO*    LGT RAIN  60  60  99 CALM      30.16S
LOGANSPORT*    HVY RAIN  61  59  94 CALM      30.18R
ROCHESTER*     CLOUDY    63  63 100 CALM      30.18S FOG
WARSAW*        RAIN      61  61 100 CALM      30.19S
ANGOLA*        CLOUDY    55  55 100 CALM      30.18F VSB 0
FORT WAYNE     MOCLDY    58  57  97 E5        30.19S
HUNTINGTON*    CLOUDY    60  59  97 SE5       30.19R
PERU/GRISSOM   LGT RAIN  63  61  94 CALM      30.16F
MARION*        HVY RAIN  60  58  94 NE3       30.19S

$$
INZ028>050-050900-
CENTRAL INDIANA

CITY           SKY/WX    TMP DP  RH WIND       PRES   REMARKS
LAFAYETTE      CLOUDY    61  59  93 N5        30.16R
KOKOMO*        CLOUDY    61  61 100 E6        30.17F
MUNCIE*        CLOUDY    63  59  87 S5        30.19F
INDIANAPOLIS   MOCLDY    63  59  87 SE7       30.16F

$$
MIZ043>046-050>051-056>058-064>065-071>073-077>080-050900-
SOUTHWEST LOWER MICHIGAN

CITY           SKY/WX    TMP DP  RH WIND       PRES   REMARKS
BATTLE CREEK   CLOUDY    57  39  51 NE7       30.20S
BENTON HARBOR  MOCLDY    54  50  86 E8        30.17R
COLDWATER*     CLOUDY    55  52  90 CALM      30.18S
HILLSDALE*     PTCLDY    55  55  99 CALM      30.19S
HOLLAND        CLOUDY    56  39  53 NE8       30.20F
GRAND RAPIDS   CLOUDY    55  38  52 NE10      30.21S
KALAMAZOO      MOCLDY    57  42  57 E3        30.19F
STURGIS*       PTCLDY    57  54  88 CALM      30.18S
THREE RIVERS*  FAIR      55  51  85 NE3       30.18F

$$
OHZ001>008-015>018-024>025-050900-
NORTHWEST OHIO

CITY           SKY/WX    TMP DP  RH WIND       PRES   REMARKS
WAUSEON*       FOG       59  59 100 CALM      30.19R VSB 1/4
DEFIANCE       CLOUDY    61  59  93 SW5       30.19S FOG
FINDLAY        CLOUDY    61  58  90 S5        30.19S FOG
TOLEDO EXPRESS MOCLDY    61  59  93 CALM      30.18S FOG
TOLEDO METCALF MOCLDY    60  57  89 W5        30.20R FOG
LIMA           CLOUDY    61  59  93 S7        30.20S FOG

$$
AND FOR LAKE MICHIGAN COASTAL AND OPEN LAKE BUOY OBSERVATIONS

STATION/POSITION TEMP    WIND        PRES    VSBY  WAVE
                 AIR SEA DIR/SP/G                  HT/PER
                 (F)     (DEG/KT/KT) (MB)    (MI)  (FT/S)
CALUMET HARBOR    50      30/  4/  5   N/A
MICHIGAN CITY     52                   N/A
BURNS HARBOR      55     290/  6/ 13 1023.0R
SAINT JOSEPH      57      CALM  /  2 1021.7F
4 MI NW BRIDGMAN  57 50  110/  6/  6   N/A           0
MICHIGAN CITY     50 50  300/ 12/ 17   N/A           1

$$
&&


USA.gov is the U.S. government's official web portal to all federal, state and local government web resources and services.